Time,TemperatureF,DewpointF,PressureIn,WindDirection,WindDirectionDegrees,WindSpeedMPH,WindSpeedGustMPH,Humidity,HourlyPrecipIn,Conditions,Clouds,dailyrainin,SolarRadiationWatts/m^2,SoftwareType,DateUTC
2013-06-30 00:52:00,61.0,60.0,-100.00,NNE,25,0.0,1.0,95,0.00,,,0.00,0.000000,,2013-06-30 07:52:00,
2013-06-30 01:11:00,61.0,60.0,-100.00,NNE,25,0.0,1.0,95,0.00,,,0.00,0.000000,,2013-06-30 08:11:00,
2013-06-30 01:22:00,61.0,60.0,-100.00,NNE,25,0.0,1.0,95,0.00,,,0.00,0.000000,,2013-06-30 08:22:00,
2013-06-30 01:33:00,61.0,60.0,-100.00,NNE,25,0.0,1.0,95,0.00,,,0.00,0.000000,,2013-06-30 08:33:00,
2013-06-30 01:42:00,61.0,60.0,-100.00,NNE,25,0.0,1.0,95,0.00,,,0.00,0.000000,,2013-06-30 08:42:00,
2013-06-30 01:52:00,59.0,58.0,-100.00,NNE,33,0.0,2.0,95,0.00,,,-99.99,0.000000,,2013-06-30 08:52:00,
2013-06-30 02:12:00,59.0,58.0,-100.00,NNE,33,0.0,2.0,95,0.00,,,-99.99,0.000000,,2013-06-30 09:12:00,
2013-06-30 02:23:00,59.0,58.0,-100.00,NNE,33,0.0,2.0,95,0.00,,,-99.99,0.000000,,2013-06-30 09:23:00,
2013-06-30 02:33:00,59.0,58.0,-100.00,NNE,33,0.0,2.0,95,0.00,,,-99.99,0.000000,,2013-06-30 09:33:00,
2013-06-30 02:43:00,59.0,58.0,-100.00,NNE,33,0.0,2.0,95,0.00,,,-99.99,0.000000,,2013-06-30 09:43:00,
2013-06-30 02:52:00,58.0,57.0,-100.00,NE,35,0.0,1.0,96,0.00,,,0.00,0.000000,,2013-06-30 09:52:00,
2013-06-30 03:11:00,58.0,57.0,-100.00,NE,35,0.0,1.0,96,0.00,,,0.00,0.000000,,2013-06-30 10:11:00,
2013-06-30 03:22:00,58.0,57.0,-100.00,NE,35,0.0,1.0,96,0.00,,,0.00,0.000000,,2013-06-30 10:22:00,
2013-06-30 03:33:00,58.0,57.0,-100.00,NE,35,0.0,1.0,96,0.00,,,0.00,0.000000,,2013-06-30 10:33:00,
2013-06-30 03:42:00,58.0,57.0,-100.00,NE,35,0.0,1.0,96,0.00,,,0.00,0.000000,,2013-06-30 10:42:00,
2013-06-30 03:52:00,56.0,55.0,-100.00,NNE,30,0.0,1.0,97,0.00,,,0.00,0.000000,,2013-06-30 10:52:00,
2013-06-30 04:11:00,56.0,55.0,-100.00,NNE,30,0.0,1.0,97,0.00,,,0.00,0.000000,,2013-06-30 11:11:00,
2013-06-30 04:22:00,56.0,55.0,-100.00,NNE,30,0.0,1.0,97,0.00,,,0.00,0.000000,,2013-06-30 11:22:00,
2013-06-30 04:33:00,56.0,55.0,-100.00,NNE,30,0.0,1.0,97,0.00,,,0.00,0.000000,,2013-06-30 11:33:00,
2013-06-30 04:43:00,56.0,55.0,-100.00,NNE,30,0.0,1.0,97,0.00,,,0.00,0.000000,,2013-06-30 11:43:00,
2013-06-30 04:52:00,55.0,54.0,-100.00,North,6,0.0,2.0,97,0.00,,,0.00,0.000000,,2013-06-30 11:52:00,
2013-06-30 05:11:00,55.0,54.0,-100.00,North,6,0.0,2.0,97,0.00,,,0.00,0.000000,,2013-06-30 12:11:00,
2013-06-30 05:24:00,55.0,54.0,-100.00,North,6,0.0,2.0,97,0.00,,,0.00,0.000000,,2013-06-30 12:24:00,
2013-06-30 05:33:00,55.0,54.0,-100.00,North,6,0.0,2.0,97,0.00,,,0.00,0.000000,,2013-06-30 12:33:00,
2013-06-30 05:43:00,55.0,54.0,-100.00,North,6,0.0,2.0,97,0.00,,,0.00,0.000000,,2013-06-30 12:43:00,
2013-06-30 05:52:00,54.0,53.0,-100.00,NE,35,0.0,1.0,97,0.00,,,0.00,8.000000,,2013-06-30 12:52:00,
2013-06-30 06:22:00,54.0,53.0,-100.00,NE,35,0.0,1.0,97,0.00,,,0.00,8.000000,,2013-06-30 13:22:00,
2013-06-30 06:33:00,54.0,53.0,-100.00,NE,35,0.0,1.0,97,0.00,,,0.00,8.000000,,2013-06-30 13:33:00,
2013-06-30 06:43:00,54.0,53.0,-100.00,NE,35,0.0,1.0,97,0.00,,,0.00,8.000000,,2013-06-30 13:43:00,
2013-06-30 06:52:00,55.0,54.0,-100.00,NE,35,0.0,1.0,97,0.00,,,0.00,18.000000,,2013-06-30 13:52:00,
2013-06-30 07:22:00,55.0,54.0,-100.00,NE,35,0.0,1.0,97,0.00,,,0.00,18.000000,,2013-06-30 14:22:00,
2013-06-30 07:33:00,55.0,54.0,-100.00,NE,35,0.0,1.0,97,0.00,,,0.00,18.000000,,2013-06-30 14:33:00,
2013-06-30 07:44:00,55.0,54.0,-100.00,NE,35,0.0,1.0,97,0.00,,,0.00,18.000000,,2013-06-30 14:44:00,
2013-06-30 07:52:00,65.0,62.0,-100.00,ENE,62,0.0,1.0,89,0.00,,,0.00,227.000000,,2013-06-30 14:52:00,
2013-06-30 08:23:00,65.0,62.0,-100.00,ENE,62,0.0,1.0,89,0.00,,,0.00,227.000000,,2013-06-30 15:23:00,
2013-06-30 08:34:00,65.0,62.0,-100.00,ENE,62,0.0,1.0,89,0.00,,,0.00,227.000000,,2013-06-30 15:34:00,
2013-06-30 08:44:00,65.0,62.0,-100.00,ENE,62,0.0,1.0,89,0.00,,,0.00,227.000000,,2013-06-30 15:44:00,
2013-06-30 08:52:00,71.0,64.0,-100.00,ESE,106,0.0,2.0,78,0.00,,,0.00,496.000000,,2013-06-30 15:52:00,
2013-06-30 09:11:00,71.0,64.0,-100.00,ESE,106,0.0,2.0,78,0.00,,,0.00,496.000000,,2013-06-30 16:11:00,
2013-06-30 09:21:00,71.0,64.0,-100.00,ESE,106,0.0,2.0,78,0.00,,,0.00,496.000000,,2013-06-30 16:21:00,
2013-06-30 09:34:00,71.0,64.0,-100.00,ESE,106,0.0,2.0,78,0.00,,,0.00,496.000000,,2013-06-30 16:34:00,
2013-06-30 09:44:00,71.0,64.0,-100.00,ESE,106,0.0,2.0,78,0.00,,,0.00,496.000000,,2013-06-30 16:44:00,
2013-06-30 09:52:00,79.0,60.0,-100.00,SSE,151,1.0,4.0,53,0.00,,,0.00,650.000000,,2013-06-30 16:52:00,
2013-06-30 10:11:00,79.0,60.0,-100.00,SSE,151,1.0,4.0,53,0.00,,,0.00,650.000000,,2013-06-30 17:11:00,
2013-06-30 10:23:00,79.0,60.0,-100.00,SSE,151,1.0,4.0,53,0.00,,,0.00,650.000000,,2013-06-30 17:23:00,
2013-06-30 10:33:00,79.0,60.0,-100.00,SSE,151,1.0,4.0,53,0.00,,,0.00,650.000000,,2013-06-30 17:33:00,
2013-06-30 10:43:00,79.0,60.0,-100.00,SSE,151,1.0,4.0,53,0.00,,,0.00,650.000000,,2013-06-30 17:43:00,
2013-06-30 10:52:00,81.0,56.0,-100.00,SSE,166,2.0,7.0,43,0.00,,,0.00,445.000000,,2013-06-30 17:52:00,
2013-06-30 11:12:00,81.0,56.0,-100.00,SSE,166,2.0,7.0,43,0.00,,,0.00,445.000000,,2013-06-30 18:12:00,
2013-06-30 11:22:00,81.0,56.0,-100.00,SSE,166,2.0,7.0,43,0.00,,,0.00,445.000000,,2013-06-30 18:22:00,
2013-06-30 11:33:00,81.0,56.0,-100.00,SSE,166,2.0,7.0,43,0.00,,,0.00,445.000000,,2013-06-30 18:33:00,
2013-06-30 11:43:00,81.0,56.0,-100.00,SSE,166,2.0,7.0,43,0.00,,,0.00,445.000000,,2013-06-30 18:43:00,
2013-06-30 11:52:00,86.0,58.0,-100.00,ENE,78,2.0,7.0,39,0.00,,,0.00,862.000000,,2013-06-30 18:52:00,
2013-06-30 12:11:00,86.0,58.0,-100.00,ENE,78,2.0,7.0,39,0.00,,,0.00,862.000000,,2013-06-30 19:11:00,
2013-06-30 12:22:00,86.0,58.0,-100.00,ENE,78,2.0,7.0,39,0.00,,,0.00,862.000000,,2013-06-30 19:22:00,
2013-06-30 12:33:00,86.0,58.0,-100.00,ENE,78,2.0,7.0,39,0.00,,,0.00,862.000000,,2013-06-30 19:33:00,
2013-06-30 12:43:00,86.0,58.0,-100.00,ENE,78,2.0,7.0,39,0.00,,,0.00,862.000000,,2013-06-30 19:43:00,
2013-06-30 12:52:00,88.0,55.0,-100.00,NNE,29,1.0,8.0,33,0.00,,,0.00,901.000000,,2013-06-30 19:52:00,
2013-06-30 13:11:00,88.0,55.0,-100.00,NNE,29,1.0,8.0,33,0.00,,,0.00,901.000000,,2013-06-30 20:11:00,
2013-06-30 13:22:00,88.0,55.0,-100.00,NNE,29,1.0,8.0,33,0.00,,,0.00,901.000000,,2013-06-30 20:22:00,
2013-06-30 13:34:00,88.0,55.0,-100.00,NNE,29,1.0,8.0,33,0.00,,,0.00,901.000000,,2013-06-30 20:34:00,
2013-06-30 13:42:00,88.0,55.0,-100.00,NNE,29,1.0,8.0,33,0.00,,,0.00,901.000000,,2013-06-30 20:42:00,
2013-06-30 13:52:00,90.0,53.0,-100.00,SSE,155,1.0,9.0,29,0.00,,,0.00,898.000000,,2013-06-30 20:52:00,
2013-06-30 14:11:00,90.0,53.0,-100.00,SSE,155,1.0,9.0,29,0.00,,,0.00,898.000000,,2013-06-30 21:11:00,
2013-06-30 14:22:00,90.0,53.0,-100.00,SSE,155,1.0,9.0,29,0.00,,,0.00,898.000000,,2013-06-30 21:22:00,
2013-06-30 14:33:00,90.0,53.0,-100.00,SSE,155,1.0,9.0,29,0.00,,,0.00,898.000000,,2013-06-30 21:33:00,
2013-06-30 14:42:00,90.0,53.0,-100.00,SSE,155,1.0,9.0,29,0.00,,,0.00,898.000000,,2013-06-30 21:42:00,
2013-06-30 14:52:00,92.0,52.0,-100.00,West,280,2.0,8.0,26,0.00,,,0.00,850.000000,,2013-06-30 21:52:00,
2013-06-30 15:11:00,92.0,52.0,-100.00,West,280,2.0,8.0,26,0.00,,,0.00,850.000000,,2013-06-30 22:11:00,
2013-06-30 15:22:00,92.0,52.0,-100.00,West,280,2.0,8.0,26,0.00,,,0.00,850.000000,,2013-06-30 22:22:00,
2013-06-30 15:34:00,92.0,52.0,-100.00,West,280,2.0,8.0,26,0.00,,,0.00,850.000000,,2013-06-30 22:34:00,
2013-06-30 15:43:00,92.0,52.0,-100.00,West,280,2.0,8.0,26,0.00,,,0.00,850.000000,,2013-06-30 22:43:00,
2013-06-30 15:52:00,92.0,54.0,-100.00,WSW,238,2.0,6.0,28,0.00,,,0.00,755.000000,,2013-06-30 22:52:00,
2013-06-30 16:11:00,92.0,54.0,-100.00,WSW,238,2.0,6.0,28,0.00,,,0.00,755.000000,,2013-06-30 23:11:00,
2013-06-30 16:22:00,92.0,54.0,-100.00,WSW,238,2.0,6.0,28,0.00,,,0.00,755.000000,,2013-06-30 23:22:00,
2013-06-30 16:33:00,92.0,54.0,-100.00,WSW,238,2.0,6.0,28,0.00,,,0.00,755.000000,,2013-06-30 23:33:00,
2013-06-30 16:43:00,92.0,54.0,-100.00,WSW,238,2.0,6.0,28,0.00,,,0.00,755.000000,,2013-06-30 23:43:00,
2013-06-30 17:42:00,89.0,51.0,-100.00,SSW,212,1.0,6.0,27,0.00,,,0.00,293.000000,,2013-07-01 00:42:00,
2013-06-30 17:52:00,88.0,54.0,-100.00,North,3,2.0,6.0,32,0.00,,,0.00,73.000000,,2013-07-01 00:52:00,
2013-06-30 18:11:00,88.0,54.0,-100.00,North,3,2.0,6.0,32,0.00,,,0.00,73.000000,,2013-07-01 01:11:00,
2013-06-30 18:22:00,88.0,54.0,-100.00,North,3,2.0,6.0,32,0.00,,,0.00,73.000000,,2013-07-01 01:22:00,
2013-06-30 18:33:00,88.0,54.0,-100.00,North,3,2.0,6.0,32,0.00,,,0.00,73.000000,,2013-07-01 01:33:00,
2013-06-30 18:42:00,88.0,54.0,-100.00,North,3,2.0,6.0,32,0.00,,,0.00,73.000000,,2013-07-01 01:42:00,
2013-06-30 18:52:00,79.0,57.0,-100.00,NNW,327,0.0,6.0,47,0.00,,,-99.99,28.000000,,2013-07-01 01:52:00,
2013-06-30 20:52:00,66.0,60.0,-100.00,NNE,14,1.0,3.0,82,0.00,,,0.00,6.000000,,2013-07-01 03:52:00,
2013-06-30 21:32:00,66.0,60.0,-100.00,NNE,14,1.0,3.0,82,0.00,,,0.00,6.000000,,2013-07-01 04:32:00,
2013-06-30 21:42:00,66.0,60.0,-100.00,NNE,14,1.0,3.0,82,0.00,,,0.00,6.000000,,2013-07-01 04:42:00,
2013-06-30 21:52:00,63.0,60.0,-100.00,NNE,32,0.0,3.0,89,0.00,,,0.00,0.000000,,2013-07-01 04:52:00,
2013-06-30 22:11:00,63.0,60.0,-100.00,NNE,32,0.0,3.0,89,0.00,,,0.00,0.000000,,2013-07-01 05:11:00,
2013-06-30 22:22:00,63.0,60.0,-100.00,NNE,32,0.0,3.0,89,0.00,,,0.00,0.000000,,2013-07-01 05:22:00,
2013-06-30 22:33:00,63.0,60.0,-100.00,NNE,32,0.0,3.0,89,0.00,,,0.00,0.000000,,2013-07-01 05:33:00,
2013-06-30 22:42:00,63.0,60.0,-100.00,NNE,32,0.0,3.0,89,0.00,,,0.00,0.000000,,2013-07-01 05:42:00,
2013-06-30 22:52:00,60.0,57.0,-100.00,NE,52,0.0,2.0,91,0.00,,,0.00,0.000000,,2013-07-01 05:52:00,
2013-06-30 23:12:00,60.0,57.0,-100.00,NE,52,0.0,2.0,91,0.00,,,0.00,0.000000,,2013-07-01 06:12:00,
2013-06-30 23:24:00,60.0,57.0,-100.00,NE,52,0.0,2.0,91,0.00,,,0.00,0.000000,,2013-07-01 06:24:00,
2013-06-30 23:33:00,60.0,57.0,-100.00,NE,52,0.0,2.0,91,0.00,,,0.00,0.000000,,2013-07-01 06:33:00,
2013-06-30 23:43:00,60.0,57.0,-100.00,NE,52,0.0,2.0,91,0.00,,,0.00,0.000000,,2013-07-01 06:43:00,
2013-06-30 23:52:00,58.0,56.0,-100.00,North,7,0.0,2.0,94,0.00,,,0.00,0.000000,,2013-07-01 06:52:00,